Theta_e
311 310 311 311 312 314 317 318 319 321 322 322 323 323 322 322 322 321 321 320 319 319 318 318 317 317 316 316 314 309 306 305 305 303 302 301 300 299 298 297 297 296
311 311 311 310 311 314 316 318 318 319 320 321 321 322 322 322 321 321 320 320 319 319 318 318 317 317 316 316 314 310 305 306 306 304 302 300 299 298 297 297 297 296
312 311 310 310 311 313 315 317 317 317 318 319 320 321 321 321 321 321 320 319 319 319 318 317 317 317 316 315 315 311 307 306 305 303 302 300 299 298 297 297 296 296
312 312 310 310 311 312 313 314 314 315 317 319 320 321 321 321 321 320 319 319 318 318 317 316 315 316 315 315 314 312 309 307 305 303 301 300 299 298 297 296 295 295
312 312 311 310 310 312 313 313 315 317 318 320 321 321 321 321 321 320 319 318 318 317 316 315 314 314 314 313 313 311 308 307 305 303 302 300 299 298 297 296 295 294
313 312 311 310 310 312 313 314 316 318 319 320 320 320 321 321 320 320 319 318 318 317 316 315 314 313 312 312 311 308 306 304 304 303 302 300 299 298 297 295 294 294
313 312 311 310 310 312 314 314 315 319 320 319 319 319 320 320 320 319 318 317 317 316 316 315 314 314 312 309 308 305 303 303 303 302 301 300 299 298 297 295 294 293
313 312 311 311 310 311 313 313 314 317 319 318 318 318 319 319 319 319 317 316 316 316 316 315 315 314 312 307 304 303 302 302 302 301 301 300 299 298 296 295 294 293
312 312 311 311 310 311 312 311 311 314 317 318 318 318 318 318 319 318 316 316 315 315 315 315 314 314 312 306 301 300 300 300 301 300 300 299 298 297 296 294 293 293
313 312 311 311 310 310 311 310 309 311 314 315 316 316 317 317 318 318 316 315 315 315 315 315 314 314 313 307 300 298 299 299 300 299 299 299 298 296 295 294 293 293
313 312 312 311 311 310 310 310 310 310 312 313 314 315 316 317 318 317 316 315 314 314 314 314 314 314 313 309 301 297 297 298 299 298 298 298 297 295 294 294 293 293
313 312 312 311 310 310 310 310 310 310 312 313 314 315 315 317 318 317 316 314 313 313 312 312 313 313 313 311 304 297 296 297 297 297 297 296 295 294 294 293 293 293
314 313 312 311 310 310 310 310 310 310 311 313 314 314 315 317 318 316 315 314 313 313 312 311 312 312 312 312 306 299 296 296 296 296 296 295 294 294 293 293 292 292
314 313 312 311 310 310 309 309 309 309 311 312 313 314 314 316 317 316 315 315 313 312 311 311 311 311 312 312 307 299 295 295 295 295 295 294 293 293 293 293 292 291
314 313 312 311 311 310 309 309 308 309 310 311 313 313 313 314 316 316 316 315 314 312 311 310 310 310 311 311 309 302 295 295 295 294 294 293 293 293 293 292 291 291
313 313 312 312 311 310 310 309 308 308 309 310 311 312 312 313 314 316 316 315 314 312 311 310 310 310 310 311 311 304 296 294 294 294 294 293 293 293 292 292 291 290
312 312 312 312 312 311 310 309 308 308 308 309 310 310 311 312 314 315 315 315 314 313 311 311 310 310 309 310 308 302 294 293 294 293 293 293 293 293 292 292 291 290
311 311 312 312 312 311 311 310 309 308 308 308 309 309 310 311 313 314 315 314 314 313 312 311 310 309 308 307 306 300 295 293 293 293 293 293 292 292 292 292 291 290
311 311 311 311 311 311 311 310 309 309 309 308 308 309 309 310 312 313 314 314 314 313 312 311 310 310 308 307 305 301 296 293 292 292 293 292 292 292 292 291 291 290
311 311 311 311 310 310 309 309 308 308 309 309 308 308 308 308 310 312 313 313 313 314 313 311 310 310 310 308 305 300 296 293 292 292 292 292 292 292 291 291 290 290
311 310 310 310 310 310 309 309 308 308 308 308 308 308 307 307 308 310 311 312 312 312 312 311 310 310 310 309 306 301 296 293 292 292 291 291 291 291 291 291 290 289
311 310 310 309 309 309 309 308 308 307 307 307 307 308 308 307 307 308 309 311 310 311 311 311 311 310 309 308 305 302 298 294 292 292 292 291 291 291 291 291 290 289
310 309 309 309 308 308 308 308 307 307 306 306 306 307 307 307 306 306 308 309 310 310 310 311 311 310 309 306 303 300 298 296 293 292 291 291 291 290 290 290 289 288
310 309 309 308 308 307 307 307 306 306 305 305 305 305 306 306 306 305 306 307 308 309 309 310 311 309 308 306 303 299 296 295 293 292 290 290 290 290 289 289 288 287
310 310 309 309 308 307 306 306 305 305 304 304 304 304 304 304 304 304 305 305 306 307 308 309 309 307 305 304 301 296 293 292 292 291 290 289 289 290 289 288 288 287
310 310 310 309 309 307 305 304 304 304 303 303 303 303 303 303 303 303 304 304 305 306 307 307 307 306 305 301 297 293 291 290 290 290 290 289 289 289 289 288 288 287
Wind_Speed
26 28 29 28 28 28 28 29 30 29 30 31 31 29 29 31 34 34 34 33 33 32 31 30 30 30 32 32 32 35 36 35 35 34 34 33 32 31 30 29 27 25
25 28 29 29 28 29 29 31 32 32 30 29 29 30 31 33 34 35 35 34 33 32 31 32 32 32 34 34 33 35 36 36 36 36 35 34 33 31 30 30 28 26
24 27 29 29 29 30 31 33 35 35 33 31 32 32 32 34 35 36 36 35 33 32 32 32 33 35 36 35 34 34 36 36 37 37 36 35 34 32 31 30 29 27
23 26 28 28 29 30 31 33 34 34 33 34 35 34 33 34 36 37 36 35 32 32 33 32 33 37 38 36 35 35 36 37 37 38 37 36 35 33 32 31 29 28
21 24 26 28 29 30 30 31 33 33 34 35 35 34 34 35 37 37 36 35 33 33 34 34 36 38 39 38 37 37 37 38 38 39 39 38 37 36 34 32 31 30
20 23 26 27 28 30 31 32 32 34 35 34 34 34 34 35 38 38 36 34 34 34 35 36 38 40 40 39 39 39 39 39 40 40 40 40 38 37 36 34 32 31
19 22 25 27 28 30 32 33 33 34 35 35 35 34 33 34 36 37 35 34 35 35 36 37 39 40 40 41 41 41 40 40 41 41 41 41 40 39 38 35 33 32
19 22 25 27 28 30 33 35 35 36 37 37 37 35 35 35 35 35 35 34 35 36 37 38 39 39 40 41 42 42 42 42 42 43 43 42 41 40 39 36 35 33
19 21 25 27 29 32 34 35 36 37 40 41 39 37 37 37 37 36 35 34 35 36 36 38 38 38 39 41 42 42 43 43 44 44 44 43 43 41 39 37 36 34
20 21 24 27 29 32 34 35 35 36 40 43 42 39 39 40 38 36 35 35 35 36 36 37 38 38 39 41 42 42 43 44 45 45 44 44 43 41 39 38 37 36
21 22 24 26 29 32 34 35 35 36 38 40 41 40 40 41 40 38 37 36 36 36 36 37 38 39 39 41 42 43 43 44 45 45 45 43 42 40 39 38 37 36
22 23 24 26 28 31 33 35 35 36 37 39 39 40 40 41 40 40 40 39 38 36 35 36 38 39 40 41 42 43 44 44 45 44 44 43 41 40 38 37 37 36
23 23 24 26 28 30 32 35 35 36 38 39 39 40 41 41 41 42 42 40 39 37 36 36 37 39 40 41 42 44 45 45 45 44 43 41 40 39 38 36 36 35
25 24 24 25 28 30 32 34 36 37 38 39 40 41 42 42 42 42 42 42 41 39 38 36 37 39 41 42 43 44 46 46 45 44 42 40 39 38 37 37 36 35
28 27 26 26 28 31 33 34 36 37 39 40 42 42 43 43 43 44 44 45 44 41 39 38 39 40 43 44 44 45 46 46 45 44 42 41 40 39 38 38 37 36
32 30 28 27 28 30 32 35 36 37 39 40 42 43 44 44 45 46 47 47 46 44 41 41 41 41 43 45 46 46 46 45 44 44 43 42 41 40 39 39 38 37
34 33 31 30 29 29 31 34 36 37 39 40 42 42 43 45 46 48 49 48 47 46 44 43 43 42 42 44 45 44 44 44 44 44 43 42 42 41 41 40 39 38
31 32 33 32 31 31 31 33 36 38 39 40 42 43 43 45 46 47 48 48 48 47 47 45 43 42 42 43 43 44 43 43 43 43 43 43 42 41 41 40 40 39
28 31 32 33 33 33 33 33 36 39 40 41 42 43 44 45 46 46 47 48 49 49 50 47 43 42 42 41 42 44 44 44 44 44 43 43 42 42 41 40 40 40
29 32 33 33 34 35 36 36 36 39 41 43 43 43 44 45 46 47 48 48 49 50 51 50 45 42 40 39 41 44 45 44 44 44 43 43 42 41 40 40 40 39
29 31 32 32 33 35 37 37 37 38 40 43 45 45 45 45 45 47 48 49 49 49 51 52 49 44 41 39 41 43 44 44 44 44 44 43 41 40 40 39 39 39
28 30 31 32 33 34 36 38 38 38 39 42 45 47 47 46 46 47 48 49 49 49 50 52 51 48 44 41 41 42 43 44 44 45 45 44 43 42 39 38 39 39
25 28 30 31 33 35 36 37 38 38 39 40 43 46 48 49 49 47 48 49 49 49 51 52 52 51 47 43 42 44 44 45 46 47 47 46 44 42 39 39 39 37
23 25 28 30 32 34 35 36 37 38 38 39 41 44 46 48 49 48 48 48 49 49 50 50 52 52 48 44 43 45 46 46 47 48 48 46 44 41 39 38 36 33
24 26 27 29 31 33 34 35 36 36 36 37 39 41 43 45 47 47 48 48 47 47 47 48 49 49 48 46 46 47 48 48 48 47 47 46 43 41 39 36 33 32
26 27 28 29 30 31 32 34 34 35 35 36 37 39 40 42 44 46 47 47 47 46 47 47 48 48 48 48 47 47 48 48 47 46 46 45 43 41 39 36 35 35
Wind_Direction
247 242 238 234 230 224 222 224 224 223 222 220 221 228 234 231 226 223 222 222 221 220 219 221 225 224 218 216 217 214 210 210 211 212 213 213 214 215 216 216 216 216
252 245 241 236 231 225 222 221 222 222 223 225 228 232 236 231 226 224 225 224 223 224 224 223 225 226 222 219 219 216 212 212 214 215 215 215 215 216 216 217 217 217
257 249 244 240 233 227 222 221 223 223 223 227 231 233 233 230 227 226 226 224 224 227 228 227 229 228 224 222 223 221 218 216 216 217 217 217 217 217 217 218 218 218
263 254 247 243 237 231 227 224 223 222 223 228 231 230 227 226 228 228 226 225 227 230 231 232 233 229 226 225 226 225 223 221 219 219 219 219 219 220 220 219 218 218
268 258 250 244 240 235 230 224 221 223 227 230 228 225 224 225 228 228 225 226 230 232 232 234 234 230 227 228 228 228 225 223 221 221 221 221 220 221 222 221 219 219
269 261 252 246 241 236 230 225 223 225 227 225 223 223 224 228 230 226 224 228 233 234 234 235 235 230 228 229 229 229 226 224 222 222 222 222 222 222 223 222 221 221
269 262 255 248 241 235 230 226 225 225 223 221 222 224 224 230 232 226 224 229 233 235 235 237 236 232 230 230 230 228 227 225 223 223 223 223 223 224 224 223 222 222
266 261 256 250 243 237 231 229 227 225 224 224 225 225 226 230 230 225 225 229 232 234 236 237 238 235 232 231 230 228 226 225 224 223 223 223 224 225 225 224 222 222
262 259 256 251 246 240 236 233 230 227 226 228 228 227 228 231 230 224 226 231 232 234 236 237 239 237 234 233 232 230 227 226 225 224 224 225 225 226 226 224 223 222
259 258 256 253 249 244 240 238 235 231 230 231 231 229 229 232 231 225 226 231 232 233 235 237 239 238 235 234 233 232 230 228 227 226 226 227 228 228 227 225 224 223
259 256 256 255 252 247 244 242 239 236 234 234 232 229 230 233 231 225 225 230 231 232 234 237 239 239 237 235 234 234 232 230 230 229 228 229 229 230 229 227 226 225
261 258 257 256 254 251 247 244 242 239 237 236 234 230 231 233 230 224 225 229 231 233 235 237 239 240 239 237 236 235 234 232 231 231 231 231 231 230 230 229 228 227
264 262 260 257 255 253 249 246 244 242 240 238 236 233 234 234 230 225 226 230 232 235 237 238 239 240 240 239 237 236 235 234 232 232 231 231 231 230 229 229 228 227
269 266 262 259 256 253 251 248 245 244 242 239 237 235 236 235 232 229 229 232 234 236 237 239 239 239 239 239 238 237 236 235 234 232 231 230 230 230 229 228 226 226
272 270 265 262 258 253 251 250 247 245 242 240 238 236 236 236 235 233 233 234 235 236 237 239 239 238 238 238 237 236 235 235 234 233 232 231 230 228 228 226 224 223
270 271 269 266 263 259 254 252 250 247 245 243 241 238 236 236 237 237 236 235 234 235 237 239 240 239 238 238 238 238 237 236 235 234 233 231 230 228 227 225 223 222
269 270 271 269 267 265 259 254 252 250 248 246 244 240 237 236 237 239 238 236 234 235 238 240 241 240 240 239 238 238 237 238 238 236 234 232 231 229 228 226 223 220
273 271 273 273 271 268 264 259 254 251 250 247 245 243 240 237 237 239 239 237 236 236 238 240 241 241 240 240 238 237 236 237 238 238 236 234 232 231 229 228 225 222
274 271 272 273 271 269 266 261 256 253 251 249 247 245 242 239 238 239 239 239 239 239 239 240 241 241 241 241 240 238 236 235 236 237 237 237 235 232 230 228 226 224
274 271 271 271 270 268 265 262 259 256 254 251 249 247 245 242 240 238 239 240 242 242 240 239 241 243 243 243 241 238 236 235 235 236 237 237 236 234 232 230 228 227
276 275 274 273 272 269 267 265 263 260 256 252 250 248 248 248 245 242 241 242 244 245 242 239 240 243 243 242 241 239 236 235 235 235 235 235 235 234 233 232 230 228
283 280 278 276 274 271 269 267 265 263 259 255 251 249 249 249 249 246 244 244 246 247 245 242 242 242 241 238 238 239 237 235 235 235 234 234 234 232 230 230 230 227
291 287 284 281 277 273 270 269 268 266 262 257 253 251 249 249 250 248 247 246 246 247 247 247 246 244 241 238 236 236 236 234 234 234 233 232 231 230 229 228 227 225
291 288 285 282 279 276 273 271 269 267 265 261 257 254 253 253 252 251 250 249 249 249 249 250 250 247 243 240 238 237 236 234 233 232 231 229 228 228 227 225 223 220
290 286 283 281 278 277 274 272 270 268 267 264 260 257 256 255 253 252 251 251 251 252 252 253 253 248 243 241 239 235 234 233 232 231 230 229 227 225 224 222 220 215
291 287 285 281 279 277 274 272 270 268 266 263 260 258 256 255 253 252 252 252 252 253 253 253 253 250 245 242 239 235 234 232 231 231 230 228 225 224 222 220 217 213